TimeEDT,TemperatureF,Dew PointF,Humidity,Sea Level PressureIn,VisibilityMPH,Wind Direction,Wind SpeedMPH,Gust SpeedMPH,PrecipitationIn,Events,Conditions,WindDirDegrees,DateUTC
12:33 AM,66.0,66.0,100,30.16,0.8,Calm,Calm,-,N/A,,Clear,0,2013-08-20 04:33:00
12:40 AM,66.0,66.0,100,30.16,0.5,Calm,Calm,-,N/A,Fog,Fog,0,2013-08-20 04:40:00
12:44 AM,66.0,66.0,100,30.16,0.8,Calm,Calm,-,N/A,,Mist,0,2013-08-20 04:44:00
12:46 AM,66.0,66.0,100,30.16,1.2,Calm,Calm,-,N/A,,Partly Cloudy,0,2013-08-20 04:46:00
12:54 AM,66.9,66.0,97,30.13,2.5,Calm,Calm,-,N/A,,Clear,0,2013-08-20 04:54:00
1:15 AM,66.0,66.0,100,30.16,10.0,Calm,Calm,-,N/A,,Clear,0,2013-08-20 05:15:00
1:33 AM,66.0,66.0,100,30.16,1.8,Calm,Calm,-,N/A,,Clear,0,2013-08-20 05:33:00
1:40 AM,66.0,66.0,100,30.16,0.5,Calm,Calm,-,N/A,Fog,Fog,0,2013-08-20 05:40:00
1:50 AM,66.2,66.2,100,30.15,1.0,Calm,Calm,-,N/A,,Clear,0,2013-08-20 05:50:00
1:54 AM,64.9,64.9,100,30.13,0.8,Calm,Calm,-,N/A,,Clear,0,2013-08-20 05:54:00
2:01 AM,66.0,66.0,100,30.15,2.0,Calm,Calm,-,N/A,,Clear,0,2013-08-20 06:01:00
2:10 AM,64.9,64.9,100,30.15,0.8,Calm,Calm,-,N/A,,Clear,0,2013-08-20 06:10:00
2:23 AM,64.9,64.9,100,30.14,2.0,Calm,Calm,-,N/A,,Clear,0,2013-08-20 06:23:00
2:30 AM,66.0,66.0,100,30.14,8.0,Calm,Calm,-,N/A,,Clear,0,2013-08-20 06:30:00
2:54 AM,64.9,64.9,100,30.12,5.0,Calm,Calm,-,N/A,,Partly Cloudy,0,2013-08-20 06:54:00
3:31 AM,66.0,66.0,100,30.15,1.5,Calm,Calm,-,N/A,,Clear,0,2013-08-20 07:31:00
3:54 AM,66.0,66.0,100,30.11,1.5,Calm,Calm,-,N/A,,Clear,0,2013-08-20 07:54:00
3:56 AM,66.0,66.0,100,30.14,3.0,Calm,Calm,-,N/A,,Clear,0,2013-08-20 07:56:00
4:54 AM,66.9,66.9,100,30.11,2.0,Calm,Calm,-,N/A,,Clear,0,2013-08-20 08:54:00
5:01 AM,66.0,66.0,100,30.14,1.8,Calm,Calm,-,N/A,,Clear,0,2013-08-20 09:01:00
5:03 AM,66.0,66.0,100,30.14,3.0,Calm,Calm,-,N/A,,Clear,0,2013-08-20 09:03:00
5:22 AM,66.0,66.0,100,30.14,1.8,Calm,Calm,-,N/A,,Clear,0,2013-08-20 09:22:00
5:34 AM,66.0,66.0,100,30.15,4.0,Calm,Calm,-,N/A,,Clear,0,2013-08-20 09:34:00
5:47 AM,66.0,66.0,100,30.15,0.8,Calm,Calm,-,N/A,,Clear,0,2013-08-20 09:47:00
5:54 AM,66.0,66.0,100,30.12,0.5,Calm,Calm,-,N/A,Fog,Fog,0,2013-08-20 09:54:00
6:01 AM,66.0,66.0,100,30.15,1.0,Calm,Calm,-,N/A,,Clear,0,2013-08-20 10:01:00
6:08 AM,66.0,66.0,100,30.15,0.5,Calm,Calm,-,N/A,Fog,Fog,0,2013-08-20 10:08:00
6:14 AM,64.9,64.9,100,30.15,0.8,Calm,Calm,-,N/A,,Mist,0,2013-08-20 10:14:00
6:20 AM,66.0,66.0,100,30.15,1.2,Calm,Calm,-,N/A,,Scattered Clouds,0,2013-08-20 10:20:00
6:25 AM,66.0,66.0,100,30.15,0.8,Calm,Calm,-,N/A,,Mist,0,2013-08-20 10:25:00
6:33 AM,66.0,66.0,100,30.15,0.5,Calm,Calm,-,N/A,Fog,Fog,0,2013-08-20 10:33:00
6:35 AM,66.0,66.0,100,30.15,1.0,Calm,Calm,-,N/A,,Mist,0,2013-08-20 10:35:00
6:50 AM,66.2,66.2,100,30.16,0.5,Calm,Calm,-,N/A,Fog,Fog,0,2013-08-20 10:50:00
6:54 AM,64.9,64.9,100,30.13,0.2,Calm,Calm,-,N/A,Fog,Fog,0,2013-08-20 10:54:00
7:04 AM,66.0,66.0,100,30.16,2.0,Calm,Calm,-,N/A,,Mostly Cloudy,0,2013-08-20 11:04:00
7:10 AM,66.0,66.0,100,30.16,0.8,Calm,Calm,-,N/A,,Mist,0,2013-08-20 11:10:00
7:21 AM,66.0,66.0,100,30.17,1.5,Calm,Calm,-,N/A,,Partly Cloudy,0,2013-08-20 11:21:00
7:23 AM,66.0,66.0,100,30.17,3.0,Calm,Calm,-,N/A,,Clear,0,2013-08-20 11:23:00
7:35 AM,66.9,66.9,100,30.17,6.0,Calm,Calm,-,N/A,,Scattered Clouds,0,2013-08-20 11:35:00
7:54 AM,68.0,68.0,100,30.14,4.0,Calm,Calm,-,N/A,,Partly Cloudy,0,2013-08-20 11:54:00
8:54 AM,71.1,70.0,96,30.16,7.0,NNE,3.5,-,N/A,,Partly Cloudy,30,2013-08-20 12:54:00
9:42 AM,73.0,70.0,90,30.19,10.0,ESE,4.6,-,N/A,,Mostly Cloudy,120,2013-08-20 13:42:00
9:54 AM,73.0,70.0,90,30.17,10.0,Calm,Calm,-,N/A,,Mostly Cloudy,0,2013-08-20 13:54:00
10:12 AM,73.0,70.0,90,30.20,10.0,SE,3.5,-,N/A,,Scattered Clouds,130,2013-08-20 14:12:00
10:54 AM,75.9,70.0,82,30.19,10.0,Variable,4.6,-,N/A,,Partly Cloudy,0,2013-08-20 14:54:00
11:54 AM,75.9,70.0,82,30.19,10.0,Calm,Calm,-,N/A,,Partly Cloudy,0,2013-08-20 15:54:00
12:07 PM,75.9,70.0,82,30.22,10.0,Calm,Calm,-,N/A,,Mostly Cloudy,0,2013-08-20 16:07:00
12:26 PM,77.0,71.1,82,30.22,10.0,Calm,Calm,-,N/A,,Scattered Clouds,0,2013-08-20 16:26:00
12:50 PM,77.0,69.8,78,30.22,10.0,NE,3.5,-,N/A,,Mostly Cloudy,50,2013-08-20 16:50:00
12:54 PM,77.0,70.0,79,30.19,10.0,Calm,Calm,-,N/A,,Mostly Cloudy,0,2013-08-20 16:54:00
1:54 PM,75.9,70.0,82,30.19,10.0,Calm,Calm,-,0.00,Rain,Light Rain,0,2013-08-20 17:54:00
2:54 PM,78.1,71.1,79,30.16,10.0,Calm,Calm,-,0.00,,Overcast,0,2013-08-20 18:54:00
3:54 PM,79.0,72.0,79,30.13,10.0,NNE,3.5,-,N/A,,Overcast,30,2013-08-20 19:54:00
4:54 PM,79.0,71.1,77,30.12,10.0,Calm,Calm,-,N/A,,Overcast,0,2013-08-20 20:54:00
5:27 PM,80.1,71.1,74,30.15,10.0,Calm,Calm,-,N/A,,Scattered Clouds,0,2013-08-20 21:27:00
5:54 PM,80.1,72.0,76,30.13,10.0,Variable,3.5,-,N/A,,Clear,0,2013-08-20 21:54:00
6:54 PM,77.0,72.0,84,30.14,10.0,Calm,Calm,-,N/A,,Clear,0,2013-08-20 22:54:00
7:19 PM,75.9,72.0,87,30.17,10.0,NNE,3.5,-,N/A,,Mostly Cloudy,30,2013-08-20 23:19:00
7:27 PM,75.9,72.0,87,30.17,10.0,Calm,Calm,-,N/A,,Scattered Clouds,0,2013-08-20 23:27:00
7:34 PM,75.9,72.0,87,30.17,10.0,Calm,Calm,-,N/A,,Mostly Cloudy,0,2013-08-20 23:34:00
7:54 PM,75.9,73.0,91,30.14,10.0,Calm,Calm,-,N/A,,Mostly Cloudy,0,2013-08-20 23:54:00
8:54 PM,73.9,72.0,93,30.14,10.0,Calm,Calm,-,N/A,,Clear,0,2013-08-21 00:54:00
9:54 PM,73.9,72.0,93,30.17,10.0,Calm,Calm,-,N/A,,Partly Cloudy,0,2013-08-21 01:54:00
10:54 PM,73.0,72.0,96,30.18,10.0,Calm,Calm,-,N/A,,Clear,0,2013-08-21 02:54:00
11:54 PM,73.0,73.0,100,30.18,9.0,Calm,Calm,-,0.00,Rain,Light Rain,0,2013-08-21 03:54:00